User: anonymous   Login
Location: Friaudour
(46.0460°N, 1.2873°E)
Time: 07:29:56
(UTC+00:00)
Language:

SL-24 DEB - Orbit

View from above orbital plane
View from above orbital plane
View from above satellite
View from above satellite

Ground track
Ground track

The orbit data is extracted from the following two-line orbital elements,

1 36510U 10013C   20273.91221898 +.00000358 +00000-0 +68432-4 0  9997
2 36510 092.0244 147.8972 0026868 093.7226 266.7061 14.63214443558542
Epoch (UTC): 29 September 2020 21:53:35
Eccentricity: 0.0026868
inclination: 92.0244°
perigee height: 664 km
apogee height: 702 km
right ascension of ascending node: 147.8972°
argument of perigee: 93.7226°
revolutions per day: 14.63214443
mean anomaly at epoch: 266.7061°
orbit number at epoch: 55854

The dashed part of the orbit path shows where the satellite is in the earth's shadow,  

DLR